�������r�C�����j�^�v���󋵏��
Date,Time,5�C6���@���p�r�C��,����,����(m/s)
2021/04/30,00:00,4.0,-,CALM
2021/04/30,00:10,3.9,��,6.8
2021/04/30,00:20,3.9,��,6.7
2021/04/30,00:30,3.9,��,6.7
2021/04/30,00:40,3.9,��,4.9
2021/04/30,00:50,4.0,��쓌,9.0
2021/04/30,01:00,4.0,�쓌,9.1
2021/04/30,01:10,4.0,���k��,3.0
2021/04/30,01:20,4.0,�k�k��,5.8
2021/04/30,01:30,3.9,��,3.0
2021/04/30,01:40,4.0,�k,5.4
2021/04/30,01:50,4.0,�k�k��,6.5
2021/04/30,02:00,3.9,�k��,7.3
2021/04/30,02:10,3.8,�k��,7.8
2021/04/30,02:20,4.0,�k��,7.9
2021/04/30,02:30,3.9,�k��,9.2
2021/04/30,02:40,4.0,�k��,6.5
2021/04/30,02:50,4.1,�k��,8.2
2021/04/30,03:00,3.9,�k��,9.2
2021/04/30,03:10,4.1,�k��,7.0
2021/04/30,03:20,4.1,�k��,7.9
2021/04/30,03:30,3.8,�k��,8.1
2021/04/30,03:40,3.9,���k��,6.5
2021/04/30,03:50,4.0,���k��,9.1
2021/04/30,04:00,4.0,�k��,8.2
2021/04/30,04:10,3.8,���k��,6.0
2021/04/30,04:20,4.1,���k��,7.5
2021/04/30,04:30,4.0,��,8.1
2021/04/30,04:40,3.9,���k��,8.9
2021/04/30,04:50,4.0,�k��,7.9
2021/04/30,05:00,4.1,���k��,5.0
2021/04/30,05:10,4.0,�k��,4.2
2021/04/30,05:20,3.8,��,5.8
2021/04/30,05:30,4.0,��,6.6
2021/04/30,05:40,4.0,���k��,7.7
2021/04/30,05:50,4.0,���k��,4.6
2021/04/30,06:00,3.9,���k��,5.9
2021/04/30,06:10,4.0,���k��,6.5
2021/04/30,06:20,3.9,���k��,8.2
2021/04/30,06:30,4.0,���k��,7.7
2021/04/30,06:40,3.9,���k��,7.2
2021/04/30,06:50,4.0,���k��,6.7
2021/04/30,07:00,4.1,�k��,6.7
2021/04/30,07:10,3.9,���k��,8.4
2021/04/30,07:20,3.8,���k��,7.5
2021/04/30,07:30,4.0,���k��,8.7
2021/04/30,07:40,3.8,���k��,7.8
2021/04/30,07:50,3.9,��,7.7
2021/04/30,08:00,4.0,��,7.5
2021/04/30,08:10,3.9,��,6.5
2021/04/30,08:20,3.9,��,8.4
2021/04/30,08:30,4.1,��,8.0
2021/04/30,08:40,3.8,��,8.6
2021/04/30,08:50,4.1,���쐼,11.1
2021/04/30,09:00,4.0,��,10.2
2021/04/30,09:10,4.0,��,12.2
2021/04/30,09:20,3.7,��,8.4
2021/04/30,09:30,3.9,��,9.0
2021/04/30,09:40,3.9,��,9.1
2021/04/30,09:50,4.0,���k��,10.5
2021/04/30,10:00,3.9,��,9.4
2021/04/30,10:10,4.1,��,9.4
2021/04/30,10:20,4.0,��,6.1
2021/04/30,10:30,3.9,���쐼,8.3
2021/04/30,10:40,4.0,��,11.1
2021/04/30,10:50,3.9,��,7.8
2021/04/30,11:00,3.8,��,8.9
2021/04/30,11:10,4.1,��,9.2
2021/04/30,11:20,4.0,��,9.4
2021/04/30,11:30,3.9,���k��,9.9
2021/04/30,11:40,3.8,��,9.7
2021/04/30,11:50,3.9,��,7.9
2021/04/30,12:00,3.9,��,8.8
2021/04/30,12:10,3.8,��,9.5
2021/04/30,12:20,3.8,���쐼,8.9
2021/04/30,12:30,4.1,���쐼,8.1
2021/04/30,12:40,3.8,��,9.9
2021/04/30,12:50,3.9,��,7.6
2021/04/30,13:00,3.9,��,7.6
2021/04/30,13:10,4.1,��,5.9
2021/04/30,13:20,3.9,���k��,5.5
2021/04/30,13:30,3.9,���k��,6.3
2021/04/30,13:40,4.0,���k��,6.3
2021/04/30,13:50,3.9,���k��,7.3
2021/04/30,14:00,3.8,���k��,5.5
2021/04/30,14:10,4.1,���쐼,9.1
2021/04/30,14:20,4.0,���쐼,6.9
2021/04/30,14:30,3.9,�쐼,4.1
2021/04/30,14:40,3.9,��쓌,4.5
2021/04/30,14:50,3.9,��쓌,7.3
2021/04/30,15:00,4.0,��쓌,9.6
2021/04/30,15:10,3.9,��쓌,7.2
2021/04/30,15:20,3.9,��쓌,9.5
2021/04/30,15:30,3.9,��쓌,8.6
2021/04/30,15:40,3.8,��쓌,8.8
2021/04/30,15:50,4.0,��,8.5
2021/04/30,16:00,3.9,��,9.1
2021/04/30,16:10,3.8,��쓌,7.7
2021/04/30,16:20,3.9,��,9.2
2021/04/30,16:30,4.0,��,7.6
2021/04/30,16:40,3.8,��,8.4
2021/04/30,16:50,3.8,��,10.0
2021/04/30,17:00,3.9,��,8.5
2021/04/30,17:10,3.8,��,8.4
2021/04/30,17:20,4.0,��,8.0
2021/04/30,17:30,4.0,��,8.6
2021/04/30,17:40,4.1,��,7.5
2021/04/30,17:50,4.0,��,7.7
2021/04/30,18:00,3.9,��쐼,8.5
2021/04/30,18:10,3.9,��쐼,7.4
2021/04/30,18:20,3.9,��쐼,6.8
2021/04/30,18:30,3.9,���쐼,5.8
2021/04/30,18:40,4.0,���k��,6.4
2021/04/30,18:50,4.0,��,8.1
2021/04/30,19:00,4.0,��,7.7
2021/04/30,19:10,3.9,��,8.2
2021/04/30,19:20,4.0,��,7.8
2021/04/30,19:30,3.8,��,6.9
2021/04/30,19:40,3.8,���k��,7.4
2021/04/30,19:50,4.0,���k��,7.3
2021/04/30,20:00,4.0,���k��,5.9
2021/04/30,20:10,3.9,��,5.1
2021/04/30,20:20,4.0,���k��,4.7
2021/04/30,20:30,3.7,���k��,3.1
2021/04/30,20:40,4.0,�k��,2.6
2021/04/30,20:50,3.8,�k��,3.2
2021/04/30,21:00,3.8,�k��,6.3
2021/04/30,21:10,3.8,�k��,3.9
2021/04/30,21:20,4.0,�k��,4.2
2021/04/30,21:30,4.0,�k�k��,2.8
2021/04/30,21:40,3.9,�k��,3.2
2021/04/30,21:50,3.8,�k�k��,2.9
2021/04/30,22:00,4.0,�k,0.8
2021/04/30,22:10,4.0,�k�k��,3.7
2021/04/30,22:20,4.0,�k��,3.0
2021/04/30,22:30,4.0,�k��,3.5
2021/04/30,22:40,3.9,�k��,2.5
2021/04/30,22:50,3.9,�k�k��,2.6
2021/04/30,23:00,3.8,�k,3.0
2021/04/30,23:10,3.8,�k,4.6
2021/04/30,23:20,3.9,�k��,6.0
2021/04/30,23:30,3.9,�k,1.7
2021/04/30,23:40,3.9,�k,2.3
2021/04/30,23:50,4.0,�k��,3.2
